Retour au catalogue

STARLINK-4790

ActifCommunicationsVLEO
NORAD 53859·PAYLOAD·🇺🇸 United States

Lancé Sep 19, 2022 depuis Cape Canaveral Space Force Station

Loading…

Prochains Passages (prochaines 24 heures)

TLE

FraisSource: CelesTrak SupGP

Époque: Sep 15, 2026, 01:13 UTC

1 53859C 22114AT  26258.05118056  .00015411  00000+0  49570-3 0  2586
2 53859  53.1591 149.3405 0001353  78.3752  95.3804 15.31685912    17

Suivez STARLINK-4790 en temps réel avec AllMySat

Download on the App Store